Weather in Makarovo

Russia / Yaroslavl Oblast     58°18′41″N   40°12′53″E
temp.,
°C
wind,
m/s
gust,
m/s
humid.,
%
clouds,
%
prec.,
mm/h
press.,
hPa
HPBL,
m
7 march, sun
sun700:00−14ssw379517 0.0 1009132
03:00−13s4109235 0.0 1005259
06:00−11s51491100 0.0 1000553
09:00−8s61392100 0.4 995790
12:00−5s61293100 0.9 991833
15:00−3ssw5995100 2.9 989695
18:00−6w31087100 1.3 989716
21:00−12wsw238678 1.3 99031
8 march, mon
mon800:00−14w23860 0.0 99120
03:00−15sw119729 0.0 99220
06:00−16wsw119793 0.0 99320
09:00−13nnw239567 0.0 995125
12:00−8n368955 0.0 998604
15:00−8n468577 0.2 1001844
18:00−11n3892100 0.1 1005527
21:00−14n399496 0.2 1008374
9 march, tue
tue900:00−18n389663 0.0 1010205
03:00−21n259860 0.0 1012101
06:00−24nnw239860 0.0 101567
09:00−22n369458 0.0 1017259
12:00−18n358971 0.0 1018446
15:00−16n358685 0.0 1019613
18:00−20nnw3794100 0.0 1020181
21:00−23n249775 0.0 102387
10 march, wed
wed1000:00−25n22970 0.0 102423
03:00−26nnw229612 0.0 102520
06:00−25nw229696 0.0 102625
09:00−23nw239453 0.0 1027188
12:00−17nw238365 0.0 1027506
15:00−14nw238082 0.0 1026595
18:00−18wnw239358 0.0 102730
21:00−22wnw239929 0.0 102857
11 march, thu
thu1100:00−21wnw2310066 0.0 102832
03:00−22wnw2210075 0.0 102920
06:00−22wnw2210082 0.0 102920
09:00−18w129583 0.0 1029136
12:00−11wsw118484 0.0 1028390
15:00−10sw238392 0.0 1027668
18:00−14s239596 0.0 102743
21:00−17s369753 0.0 102797